Temp
16 15 15 15 15 14 14 13 12 12 12 11 11 11 11 11 11 11 12 12 12 12
14 14 14 14 13 13 12 12 12 11 11 10 10 10 10 10 10 11 11 11 10 11
13 14 13 13 12 11 11 10 10 10 9 9 9 9 9 9 9 9 10 10 9 9
12 12 11 11 10 10 9 9 9 8 8 8 8 8 8 8 8 8 8 8 8 8
11 10 10 10 9 9 8 8 8 7 7 7 7 7 7 7 7 7 7 7 7 7
10 10 9 9 8 7 7 7 6 6 6 6 6 5 6 6 6 6 6 6 6 6
9 9 8 8 7 6 6 6 6 5 5 5 4 4 4 5 5 4 4 4 4 4
9 8 7 7 6 5 5 5 5 4 4 4 3 3 2 3 3 2 2 3 3 3
8 7 6 6 5 4 4 4 4 3 3 3 2 2 2 2 2 2 2 2 2 2
7 7 6 5 4 3 2 2 2 2 2 2 2 2 1 1 2 2 1 1 1 1
7 6 6 5 4 3 2 2 2 2 2 1 1 1 1 1 1 1 1 1 1 1
7 6 5 4 3 2 1 1 1 1 1 1 1 -0 -0 1 1 1 1 0 0 0
6 6 5 4 2 2 1 1 1 1 1 0 0 -0 0 0 0 0 0 -0 -0 -0
5 5 4 3 2 1 1 1 0 0 0 0 0 -0 0 0 -0 0 0 -0 -0 -1
Height
798 807 803 808 809 811 815 816 816 817 817 818 818 818 818 817 817 817 816 816 815 816
799 799 801 804 806 810 812 813 814 814 814 815 816 815 816 816 815 814 812 813 812 811
799 793 799 803 805 807 809 810 812 812 810 811 812 812 812 812 811 811 811 809 811 808
797 793 798 800 802 805 806 808 808 809 808 807 808 809 809 809 808 808 807 809 808 807
795 795 795 798 802 803 805 805 804 806 806 806 806 805 806 806 806 806 806 806 807 806
792 794 797 798 800 801 802 803 803 803 804 805 804 804 804 803 803 803 805 805 806 807
792 793 795 796 799 799 799 800 801 801 802 802 802 802 803 802 802 801 802 803 805 805
790 791 794 795 796 796 797 799 799 799 800 801 800 800 801 799 801 800 801 802 803 803
787 790 791 792 793 795 795 796 797 798 799 798 800 798 800 799 799 800 800 801 804 804
785 787 788 790 792 793 794 795 795 795 797 797 798 798 799 798 800 799 800 803 805 805
781 783 784 786 789 791 792 792 793 794 795 797 799 798 796 798 799 800 800 803 805 804
777 779 781 783 786 788 789 790 791 792 794 796 795 796 797 798 798 800 801 804 805 805
775 776 778 780 783 785 786 787 789 790 791 793 794 794 796 797 798 799 801 803 803 803
772 773 775 777 779 781 783 785 787 789 789 791 793 793 795 796 797 798 800 801 801 802
Wind_Speed
12 9 9 10 9 7 7 6 7 8 7 7 9 10 10 11 11 10 11 12 14 15
16 14 10 7 7 8 8 10 9 7 7 7 9 9 10 10 8 8 10 13 11 12
12 13 9 8 7 6 7 7 7 7 7 8 8 9 9 8 8 9 7 10 11 9
10 9 9 6 5 5 6 7 8 8 9 7 8 8 7 6 9 7 5 7 8 7
10 7 5 4 5 6 5 6 7 8 8 7 8 8 6 5 6 5 4 4 5 3
8 6 6 7 7 6 5 5 5 6 5 6 5 6 5 4 2 3 4 5 5 5
9 7 7 7 7 6 5 4 4 4 5 7 8 7 6 4 5 4 4 3 4 3
11 9 9 8 7 6 5 6 7 7 7 7 7 6 5 5 5 5 5 4 4 4
10 9 8 6 5 4 4 5 5 6 6 5 5 5 5 6 7 7 7 11 10 8
13 11 11 9 6 6 6 6 6 5 5 4 3 2 4 6 8 8 10 9 7 5
14 12 12 8 8 8 8 8 7 6 5 6 6 5 5 6 7 8 7 6 4 4
14 14 14 11 11 10 10 10 9 9 8 8 5 6 7 6 7 7 6 6 5 5
14 14 14 11 12 13 12 11 11 11 11 8 8 8 8 7 5 5 5 5 4 5
12 13 11 11 13 13 12 11 12 12 11 11 10 9 9 8 7 5 6 5 4 3
Wind_Direction
168 184 153 175 170 179 196 183 220 267 274 275 278 282 281 277 275 270 266 272 268 267
174 167 165 181 187 201 226 238 252 261 272 279 286 288 288 291 288 279 274 273 273 274
176 164 178 187 194 215 227 256 261 265 267 273 278 283 289 293 286 281 286 279 279 273
184 156 169 170 208 233 247 262 268 267 269 268 271 274 280 278 279 283 270 274 277 270
173 167 156 175 225 243 252 256 282 276 282 275 270 269 267 270 285 283 258 249 257 251
184 178 175 193 222 242 252 260 263 282 278 261 270 273 262 246 238 213 225 230 221 232
186 187 198 214 232 240 250 252 244 242 243 270 274 272 251 234 216 215 219 198 212 206
199 203 209 226 240 252 250 235 249 258 274 284 291 283 256 233 203 188 175 160 156 131
195 200 210 219 235 250 246 244 247 252 255 268 261 286 228 198 195 174 155 138 131 125
197 197 202 203 218 219 226 242 243 237 248 213 219 210 195 189 183 165 153 151 150 145
196 197 201 210 220 232 232 242 234 234 227 209 204 224 201 180 166 162 162 170 173 132
201 198 203 212 222 228 230 232 225 221 207 208 211 196 168 176 158 167 160 160 167 155
207 206 211 226 223 225 229 229 223 220 215 213 212 191 183 172 165 172 178 191 193 176
208 208 215 230 223 229 227 221 217 216 212 209 209 203 204 202 196 195 208 211 210 213